Location: Heilbronn
(49.1548°N, 9.2780°E)
Time: 17:00:12
(UTC+01:00)

ISS - Pass Details

Date: 29 March 2017
Orbit: 399 x 409 km, 51.6° (Epoch: 25 March)

Event Time Altitude Azimuth Distance (km) Brightness Sun altitude
Rises 21:39:41 0° 240° (WSW) 2,307 0.5 -17.9°
Reaches altitude 10° 21:41:46 10° 237° (WSW) 1,452 -0.7 -18.2°
Enters shadow 21:44:52 65° 172° (S) 449 -3.9 -18.6°
